Weather History for KLUK - May, 2014

Change the Weather History Date:

Friday, May 9, 2014

  Actual Average Record
Temperature  
Mean Temperature 66 °F -  
Max Temperature 75 °F 70 °F 90 °F (1963)
Min Temperature 59 °F 49 °F 34 °F (1980)
Cooling Degree Days 1    
Growing Degree Days 16 (Base 50)    
Moisture  
Dew Point 60 °F    
Average Humidity 78    
Maximum Humidity 90    
Minimum Humidity 59    
Precipitation  
Precipitation 0.03 in - - ()
Sea Level Pressure  
Sea Level Pressure 29.93 in    
Wind  
Wind Speed 5 mph (SSW)    
Max Wind Speed 24 mph    
Max Gust Speed 33 mph    
Visibility 10 miles    
Events Rain    
Averages and records for this station are not official NWS values.
T = Trace of Precipitation, MM = Missing Value Source: NWS Daily Summary

Daily Weather History Graph

Daily Weather History Graph

Search for Another Location

Airport or City:

Trip Planner

Search our weather history database for the weather conditions in past years. The results will help you decide how hot, cold, wet, or windy it might be!

Date:

Astronomy

May. 09, 2014 Rise Set
Actual Time 6:30 AM EDT 8:38 PM EDT
Civil Twilight 6:00 AM EDT 9:08 PM EDT
Nautical Twilight 5:24 AM EDT 9:44 PM EDT
Astronomical Twilight 4:45 AM EDT 10:23 PM EDT
Moon 3:37 PM EDT (5/9) 3:29 AM EDT (5/9)
Length of Visible Light 15h 07m
Length of Day
14h 07m
Waxing Gibbous, 73% of the Moon is Illuminated
May 9
Waxing Gibbous
May 14
Full
May 21
Last Quarter
May 28
New
Jun 5
First Quarter

Hourly Weather History & Observations

Time (EDT) Temp. Dew Point Humidity Pressure Visibility Wind Dir Wind Speed Gust Speed Precip Events Conditions
12:53 AM 59.0 °F 54.0 °F 83% 30.00 in 10.0 mi Calm Calm - N/A   Clear
1:53 AM 60.1 °F 55.9 °F 86% 29.99 in 10.0 mi Calm Calm - N/A   Clear
2:53 AM 59.0 °F 55.9 °F 90% 29.98 in 10.0 mi Calm Calm - N/A   Clear
3:53 AM 60.1 °F 57.0 °F 90% 29.97 in 10.0 mi Calm Calm - N/A   Clear
4:53 AM 59.0 °F 55.4 °F 88% 29.97 in 10.0 mi Calm Calm - N/A   Clear
5:53 AM 60.1 °F 55.9 °F 86% 29.95 in 10.0 mi Calm Calm - N/A   Clear
6:53 AM 60.1 °F 57.0 °F 90% 29.96 in 10.0 mi SSW 3.5 mph - N/A   Scattered Clouds
7:53 AM 62.6 °F 57.2 °F 82% 29.97 in 10.0 mi WSW 4.6 mph - N/A   Mostly Cloudy
8:53 AM 64.9 °F 59.0 °F 81% 29.96 in 10.0 mi SW 3.5 mph - N/A   Scattered Clouds
9:53 AM 69.1 °F 60.1 °F 73% 29.95 in 10.0 mi SSW 8.1 mph - N/A   Scattered Clouds
10:53 AM 72.0 °F 61.0 °F 68% 29.93 in 10.0 mi SSW 9.2 mph - N/A   Mostly Cloudy
11:53 AM 73.9 °F 59.0 °F 59% 29.93 in 10.0 mi SSW 24.2 mph 32.2 mph N/A   Mostly Cloudy
12:16 PM 70.0 °F 60.1 °F 71% 29.95 in 8.0 mi SW 21.9 mph 33.4 mph 0.00 in Rain Light Rain
12:53 PM 66.9 °F 63.0 °F 87% 29.94 in 10.0 mi SSW 9.2 mph - 0.02 in Rain Light Rain
1:53 PM 69.1 °F 62.1 °F 78% 29.91 in 10.0 mi South 9.2 mph - 0.01 in   Overcast
2:53 PM 71.1 °F 63.0 °F 75% 29.89 in 10.0 mi SSW 6.9 mph - N/A   Overcast
3:53 PM 73.0 °F 63.0 °F 71% 29.88 in 10.0 mi South 15.0 mph - N/A   Mostly Cloudy
4:53 PM 73.0 °F 63.0 °F 71% 29.86 in 10.0 mi SSW 10.4 mph - N/A   Partly Cloudy
5:53 PM 73.0 °F 61.0 °F 66% 29.87 in 10.0 mi SSW 10.4 mph - N/A   Mostly Cloudy
6:53 PM 72.0 °F 64.0 °F 76% 29.88 in 10.0 mi South 11.5 mph - N/A   Clear
7:53 PM 70.0 °F 64.0 °F 81% 29.88 in 10.0 mi South 9.2 mph - N/A   Clear
8:53 PM 69.1 °F 63.0 °F 81% 29.88 in 10.0 mi SSW 11.5 mph - N/A   Clear
9:53 PM 69.1 °F 61.0 °F 75% 29.88 in 10.0 mi SW 12.7 mph 21.9 mph N/A   Clear
10:53 PM 66.2 °F 57.2 °F 73% 29.93 in 10.0 mi SW 13.8 mph - N/A   Clear
11:53 PM 64.9 °F 55.9 °F 73% 29.94 in 10.0 mi SW 13.8 mph 23.0 mph N/A   Clear